This is the latest recevied weather packets stored in our database for station/object N6WDO. If no packets are shown the sender has not sent any weather packets the latest 10 day(s).
| Time | Temp. | Humidity | Pressure | Rain* | Wind** | Luminosity | Snow |
|---|---|---|---|---|---|---|---|
| 1777052993 | 16.67° C | 58% | 1015 hPa | 0 mm | - | 235 W/m² | - |
| 1777052689 | 16.11° C | 58% | 1015 hPa | 0 mm | - | 226 W/m² | - |
| 1777052389 | 16.67° C | 58% | 1015 hPa | 0 mm | - | 233 W/m² | - |
| 1777052086 | 16.11° C | 62% | 1014.8 hPa | 0 mm | - | 253 W/m² | - |
| 1777051783 | 15.56° C | 60% | 1014.8 hPa | 0 mm | - | 272 W/m² | - |
| 1777051479 | 15° C | 63% | 1015 hPa | 0 mm | - | 219 W/m² | - |
| 1777051170 | 15° C | 65% | 1015.1 hPa | 0 mm | - | 182 W/m² | - |
| 1777050866 | 15° C | 65% | 1014.8 hPa | 0 mm | - | 167 W/m² | - |
| 1777050561 | 15.56° C | 62% | 1014.5 hPa | 0 mm | - | 173 W/m² | - |
| 1777050261 | 16.11° C | 63% | 1014.7 hPa | 0 mm | - | 216 W/m² | - |
| 1777049957 | 15.56° C | 59% | 1014.5 hPa | 0 mm | - | 223 W/m² | - |
| 1777049656 | 15° C | 63% | 1014.8 hPa | 0 mm | - | 225 W/m² | - |
| 1777049355 | 14.44° C | 64% | 1015 hPa | 0 mm | - | 172 W/m² | - |
| 1777049050 | 14.44° C | 64% | 1015 hPa | 0 mm | - | 133 W/m² | - |
| 1777048747 | 14.44° C | 67% | 1014.9 hPa | 0 mm | - | 128 W/m² | - |
| 1777048441 | 15° C | 65% | 1015 hPa | 0 mm | - | 147 W/m² | - |
| 1777048141 | 15° C | 63% | 1015 hPa | 0 mm | - | 174 W/m² | - |
| 1777047837 | 15° C | 61% | 1015 hPa | 0 mm | - | 187 W/m² | - |
| 1777047533 | 15° C | 60% | 1014.9 hPa | 0 mm | - | 209 W/m² | - |
| 1777047228 | 15.56° C | 62% | 1015.1 hPa | 0 mm | - | 207 W/m² | - |
| 1777046925 | 15.56° C | 63% | 1014.8 hPa | 0 mm | - | 192 W/m² | - |
| 1777046621 | 16.67° C | 58% | 1015.1 hPa | 0 mm | - | 190 W/m² | - |
* Rain latest hour (hover to see other rain measurements)
** Current wind speed in m/s (hover to see current wind gust speed)